TimeCET,TemperatureF,Dew PointF,Humidity,Sea Level PressureIn,VisibilityMPH,Wind Direction,Wind SpeedMPH,Gust SpeedMPH,PrecipitationIn,Events,Conditions,WindDirDegrees,DateUTC
12:00 AM,59.0,44.6,59,29.65,6.2,West,21.9,-,N/A,,Partly Cloudy,260,2013-03-11 23:00:00
12:30 AM,59.0,48.2,67,29.65,6.2,WSW,15.0,-,N/A,,Partly Cloudy,250,2013-03-11 23:30:00
1:00 AM,57,44,53,29.66,12,WSW,15.0,,,,Scattered Clouds,250,2013-03-12 00:00:00
1:00 AM,59.0,48.2,67,29.65,6.2,WSW,8.1,-,N/A,,Partly Cloudy,240,2013-03-12 00:00:00
2:00 AM,59.0,44.6,59,29.65,6.2,West,13.8,-,N/A,,Partly Cloudy,270,2013-03-12 01:00:00
2:30 AM,59.0,44.6,59,29.62,6.2,West,15.0,26.5,N/A,,Partly Cloudy,270,2013-03-12 01:30:00
3:00 AM,59.0,44.6,59,29.62,6.2,West,18.4,-,N/A,,Partly Cloudy,270,2013-03-12 02:00:00
3:30 AM,59.0,44.6,59,29.62,6.2,West,19.6,-,N/A,,Partly Cloudy,270,2013-03-12 02:30:00
4:00 AM,59.0,44.6,59,29.62,6.2,West,17.3,-,N/A,,Partly Cloudy,270,2013-03-12 03:00:00
4:30 AM,57.2,44.6,63,29.59,6.2,West,17.3,29.9,N/A,,Partly Cloudy,270,2013-03-12 03:30:00
5:00 AM,57.2,44.6,63,29.59,6.2,West,21.9,-,N/A,,Partly Cloudy,270,2013-03-12 04:00:00
5:30 AM,57.2,42.8,59,29.59,6.2,West,13.8,-,N/A,,Partly Cloudy,280,2013-03-12 04:30:00
6:00 AM,55.4,44.6,67,29.59,6.2,West,13.8,-,N/A,,Partly Cloudy,260,2013-03-12 05:00:00
6:30 AM,55.4,44.6,67,29.59,6.2,WNW,13.8,-,N/A,,Partly Cloudy,290,2013-03-12 05:30:00
7:00 AM,54,41,51,29.61,16,WNW,8.1,,,,Scattered Clouds,290,2013-03-12 06:00:00
7:00 AM,55.4,44.6,67,29.59,6.2,WNW,11.5,-,N/A,,Partly Cloudy,290,2013-03-12 06:00:00
7:30 AM,55.4,44.6,67,29.59,6.2,West,11.5,-,N/A,,Partly Cloudy,280,2013-03-12 06:30:00
8:00 AM,57.2,44.6,63,29.59,6.2,West,10.4,-,N/A,,Partly Cloudy,270,2013-03-12 07:00:00
8:30 AM,59.0,44.6,59,29.62,6.2,West,16.1,-,N/A,,Partly Cloudy,270,2013-03-12 07:30:00
9:00 AM,59.0,44.6,59,29.62,6.2,West,13.8,-,N/A,,Partly Cloudy,270,2013-03-12 08:00:00
9:30 AM,59.0,44.6,59,29.62,6.2,West,17.3,-,N/A,,Partly Cloudy,260,2013-03-12 08:30:00
10:00 AM,60.8,46.4,59,29.65,6.2,West,18.4,-,N/A,,Partly Cloudy,270,2013-03-12 09:00:00
10:30 AM,60.8,44.6,55,29.62,6.2,West,18.4,-,N/A,,Partly Cloudy,270,2013-03-12 09:30:00
11:00 AM,60.8,42.8,52,29.62,6.2,West,17.3,-,N/A,,Partly Cloudy,260,2013-03-12 10:00:00
11:30 AM,60.8,42.8,52,29.62,6.2,West,15.0,-,N/A,,Partly Cloudy,270,2013-03-12 10:30:00
12:00 PM,62.6,39.2,42,29.62,6.2,NW,12.7,-,N/A,,Partly Cloudy,320,2013-03-12 11:00:00
12:30 PM,60.8,41.0,48,29.62,6.2,NW,15.0,-,N/A,,Partly Cloudy,320,2013-03-12 11:30:00
1:00 PM,62,35,25,29.64,19,NW,11.5,,,,Scattered Clouds,310,2013-03-12 12:00:00
1:00 PM,60.8,41.0,48,29.62,6.2,WNW,13.8,-,N/A,,Partly Cloudy,290,2013-03-12 12:00:00
1:30 PM,62.6,42.8,48,29.62,6.2,West,13.8,-,N/A,,Partly Cloudy,260,2013-03-12 12:30:00
2:00 PM,60.8,44.6,55,29.62,6.2,WSW,19.6,-,N/A,,Partly Cloudy,250,2013-03-12 13:00:00
2:30 PM,62.6,44.6,52,29.62,6.2,WSW,18.4,-,N/A,,Partly Cloudy,250,2013-03-12 13:30:00
3:00 PM,60.8,46.4,59,29.62,6.2,WSW,18.4,-,N/A,,Partly Cloudy,250,2013-03-12 14:00:00
3:30 PM,60.8,44.6,55,29.62,6.2,WSW,19.6,-,N/A,,Partly Cloudy,250,2013-03-12 14:30:00
4:30 PM,59.0,44.6,59,29.59,6.2,WSW,16.1,-,N/A,,Partly Cloudy,250,2013-03-12 15:30:00
5:00 PM,57.2,44.6,63,29.59,6.2,WSW,15.0,-,N/A,,Partly Cloudy,240,2013-03-12 16:00:00
5:30 PM,57.2,44.6,63,29.59,6.2,WSW,15.0,-,N/A,,Partly Cloudy,250,2013-03-12 16:30:00
6:00 PM,57.2,44.6,63,29.59,6.2,WSW,12.7,-,N/A,,Partly Cloudy,250,2013-03-12 17:00:00
6:30 PM,55.4,42.8,63,29.59,6.2,WSW,8.1,-,N/A,,Partly Cloudy,240,2013-03-12 17:30:00
7:00 PM,55,41,47,29.60,16,WSW,9.2,,,,Scattered Clouds,240,2013-03-12 18:00:00
7:00 PM,55.4,44.6,67,29.59,6.2,WSW,6.9,-,N/A,,Partly Cloudy,240,2013-03-12 18:00:00
7:30 PM,55.4,46.4,72,29.59,6.2,SW,6.9,-,N/A,,Partly Cloudy,230,2013-03-12 18:30:00
8:00 PM,55.4,46.4,72,29.59,6.2,WSW,5.8,-,N/A,,Partly Cloudy,240,2013-03-12 19:00:00
8:30 PM,55.4,48.2,77,29.59,6.2,WSW,4.6,-,N/A,,Partly Cloudy,240,2013-03-12 19:30:00
9:00 PM,53.6,46.4,77,29.59,6.2,Variable,1.2,-,N/A,,Partly Cloudy,0,2013-03-12 20:00:00
9:30 PM,55.4,48.2,77,29.56,6.2,East,2.3,-,N/A,,Partly Cloudy,80,2013-03-12 20:30:00
10:00 PM,50.0,44.6,82,29.56,6.2,Variable,1.2,-,N/A,,Partly Cloudy,0,2013-03-12 21:00:00
10:30 PM,50.0,44.6,82,29.56,6.2,Calm,Calm,-,N/A,,Partly Cloudy,0,2013-03-12 21:30:00
11:00 PM,50.0,46.4,87,29.56,6.2,Calm,Calm,-,N/A,,Partly Cloudy,0,2013-03-12 22:00:00
11:30 PM,50.0,44.6,82,29.53,6.2,East,3.5,-,N/A,,Scattered Clouds,90,2013-03-12 22:30:00